Location: Fosso Corella
(43.9167°N, 11.5667°E)
Time: 03:07:08
(UTC+00:00)

Resurs 1-4 Rocket - Pass Details

Date: 07 June 2020
Orbit: 800 x 813 km, 98.6° (Epoch: 11 July)

Event Time Altitude Azimuth Distance (km) Brightness Sun altitude
Rises 01:34:20 0° 7° (N) 3,337 6.5 -15.8°
Reaches altitude 10° 01:36:46 10° 1° (N) 2,404 5.4 -15.6°
Maximum altitude 01:41:46 43° 291° (WNW) 1,126 2.7 -15.1°
Enters shadow 01:44:54 21° 231° (SW) 1,745 3.3 -14.7°
